TimeAKDT,TemperatureF,Dew PointF,Humidity,Sea Level PressureIn,VisibilityMPH,Wind Direction,Wind SpeedMPH,Gust SpeedMPH,PrecipitationIn,Events,Conditions,WindDirDegrees,DateUTC
12:53 AM,19.9,10.9,68,30.48,10.0,Calm,Calm,-,N/A,,Clear,0,2014-03-23 08:53:00
1:53 AM,19.9,10.9,68,30.48,10.0,Calm,Calm,-,N/A,,Clear,0,2014-03-23 09:53:00
2:53 AM,18.0,9.0,68,30.49,10.0,Calm,Calm,-,N/A,,Clear,0,2014-03-23 10:53:00
3:53 AM,16.0,9.0,74,30.49,10.0,Calm,Calm,-,N/A,,Clear,0,2014-03-23 11:53:00
4:53 AM,14.0,8.1,77,30.50,10.0,Calm,Calm,-,N/A,,Clear,0,2014-03-23 12:53:00
5:53 AM,14.0,7.0,74,30.49,10.0,Calm,Calm,-,N/A,,Clear,0,2014-03-23 13:53:00
6:53 AM,10.0,3.9,76,30.49,10.0,Calm,Calm,-,N/A,,Clear,0,2014-03-23 14:53:00
7:53 AM,12.0,5.0,73,30.49,10.0,Calm,Calm,-,N/A,,Clear,0,2014-03-23 15:53:00
8:53 AM,12.9,7.0,77,30.50,9.0,Calm,Calm,-,N/A,,Clear,0,2014-03-23 16:53:00
9:53 AM,21.0,9.0,60,30.49,10.0,NNE,3.5,-,N/A,,Clear,30,2014-03-23 17:53:00
10:53 AM,25.0,9.0,51,30.48,10.0,Variable,3.5,-,N/A,,Clear,0,2014-03-23 18:53:00
11:53 AM,28.9,8.1,41,30.47,10.0,NNE,3.5,-,N/A,,Clear,30,2014-03-23 19:53:00
12:53 PM,32.0,8.1,37,30.46,10.0,North,3.5,-,N/A,,Clear,10,2014-03-23 20:53:00
1:53 PM,35.1,6.1,30,30.44,10.0,North,4.6,-,N/A,,Clear,360,2014-03-23 21:53:00
2:53 PM,37.0,6.1,28,30.43,10.0,NNW,4.6,-,N/A,,Clear,330,2014-03-23 22:53:00
3:53 PM,37.0,7.0,29,30.41,10.0,Calm,Calm,-,N/A,,Clear,0,2014-03-23 23:53:00
4:53 PM,39.0,7.0,27,30.39,10.0,North,4.6,-,N/A,,Clear,10,2014-03-24 00:53:00
5:53 PM,39.0,8.1,28,30.38,10.0,Calm,Calm,-,N/A,,Clear,0,2014-03-24 01:53:00
6:53 PM,39.0,8.1,28,30.37,10.0,Calm,Calm,-,N/A,,Clear,0,2014-03-24 02:53:00
7:53 PM,36.0,10.0,34,30.36,10.0,Calm,Calm,-,N/A,,Clear,0,2014-03-24 03:53:00
8:53 PM,30.0,19.9,66,30.36,10.0,Calm,Calm,-,N/A,,Clear,0,2014-03-24 04:53:00
9:53 PM,27.0,19.0,72,30.35,10.0,Calm,Calm,-,N/A,,Clear,0,2014-03-24 05:53:00
10:53 PM,25.0,19.0,78,30.35,10.0,Calm,Calm,-,N/A,,Clear,0,2014-03-24 06:53:00
11:53 PM,21.9,17.1,82,30.34,10.0,Calm,Calm,-,N/A,,Clear,0,2014-03-24 07:53:00